Hourly Weather Roundup
Issued by NWS Central Illinois

Home | Current Version | Previous Version | Text Only | Print | Product List | Glossary Off
Versions: 1 2 3 4 5 6 7 8 9 10 11 12 13 14 15 16 17 18 19 20 21 22 23 24 25 26 27 28 29 30 31 32 33 34 35 36 37 38 39 40 41 42 43 44 45 46 47 48 49 50

000
NZUS43 KILX 272210
HWRILX

AREA WEATHER ROUNDUP
NATIONAL WEATHER SERVICE, LINCOLN IL
500 PM CDT MON MAR 27 2017


CITY           SKY/WX    TMP DP  RH WIND       PRES   REMARKS
BLOOMINGTON    CLOUDY    55  52  89 N12       29.85S
CHAMPAIGN      CLOUDY    57  52  83 E12       29.83S
DECATUR        CLOUDY    56  53  90 E12       29.81F
EFFINGHAM      CLOUDY    61  58  91 N3        29.78F
FLORA          CLOUDY    64  55  72 SW8       29.79S
GALESBURG      CLOUDY    52  49  87 N9        29.88S
JACKSONVILLE   CLOUDY    57  53  88 NE7       29.83F
LACON          CLOUDY    53  50  90 N6        29.87S
LAWRENCEVILLE  LGT RAIN  60  58  92 S9        29.79S FOG
LITCHFIELD     CLOUDY    54  54  99 N10       29.80S FOG
$$


CITY           SKY/WX    TMP DP  RH WIND       PRES   REMARKS
LINCOLN        CLOUDY    57  55  92 N6        29.84S
MACOMB         CLOUDY    54  51  90 N13       29.90R
MATTOON        CLOUDY    57  55  93 NE8       29.78F
MT CARMEL AP   CLOUDY    64  54  70 SW13      29.79S
OLNEY-NOBLE AP CLOUDY    63  54  72 SW6       29.78S
PARIS          CLOUDY    56  54  94 NE7       29.82F
PEORIA         CLOUDY    55  52  89 N6        29.86S
PONTIAC        LGT RAIN  55  54  97 N7        29.87F
RANTOUL        CLOUDY    61  54  76 NE12      29.83S
SPRINGFIELD    CLOUDY    58  54  86 N8        29.84R
TAYLORVILLE    DRIZZLE   55  54  94 NE12      29.80F
$$

...REGIONAL REPORTS...


CITY           SKY/WX    TMP DP  RH WIND       PRES   REMARKS
CHICAGO O`HARE CLOUDY    48  42  80 NE9       29.90F
KANKAKEE       LGT RAIN  55  53  92 CALM      29.87S
MOLINE         CLOUDY    53  46  77 N6        29.89F
MOUNT STERLING CLOUDY    55  52  90 N9        29.86R
MOUNT VERNON   PTSUNNY   64  54  69 SW12      29.78S
PITTSFIELD     CLOUDY    56  54  93 N7        29.85S
QUINCY         CLOUDY    56  52  86 N8        29.86R
ROCKFORD       CLOUDY    53  44  71 N7        29.93S
$$


CITY           SKY/WX    TMP DP  RH WIND       PRES   REMARKS
BURLINGTON     CLOUDY    52  49  89 N10       29.89R
CEDAR RAPIDS   CLOUDY    50  46  86 N8        29.91S
DES MOINES     CLOUDY    51  42  71 N7        29.93F
KIRKSVILLE     CLOUDY    51  48  89 N9        29.92R
OTTUMWA        CLOUDY    50  47  89 NW12      29.92S
ST LOUIS       CLOUDY    57  52  83 VRB6      29.82F
$$


CITY           SKY/WX    TMP DP  RH WIND       PRES   REMARKS
TERRE HAUTE    CLOUDY    60  54  80 E5        29.80F
EVANSVILLE     CLOUDY    60  54  80 SW7       29.80S
INDIANAPOLIS   CLOUDY    60  53  77 E9        29.82F
LAFAYETTE      LGT RAIN  58  54  86 SE8       29.84S FOG
MADISON        CLOUDY    48  42  80 N6        29.92S
MILWAUKEE      CLOUDY    44  37  76 E6        29.93F
$$





USA.gov is the U.S. government's official web portal to all federal, state and local government web resources and services.